Location: Casilda
(33.0440°S, 61.1680°W)
Time: 10:33:03
(UTC-03:00)

ISS - Pass Details

Date: 18 October 2020
Orbit: 417 x 420 km, 51.6° (Epoch: 22 October)

Event Time Altitude Azimuth Distance (km) Brightness Sun altitude
Rises 20:23:50 0° 290° (WNW) 2,371 0.9 -13.6°
Reaches altitude 10° 20:26:08 10° 277° (W) 1,513 0.0 -14.0°
Maximum altitude 20:29:05 27° 217° (SW) 859 -1.5 -14.6°
Drops below altitude 10° 20:32:04 10° 157° (SSE) 1,526 -0.9 -15.2°
Sets 20:34:24 0° 144° (SE) 2,397 0.0 -15.6°
